Year,Month,Day,Hour,Minute,Value (Times are PST for temperature in C)
2018,08,04,00,00,14.00
2018,08,04,00,01,14.00
2018,08,04,00,02,14.00
2018,08,04,00,03,14.00
2018,08,04,00,04,14.00
2018,08,04,00,05,14.00
2018,08,04,00,06,14.00
2018,08,04,00,07,14.00
2018,08,04,00,08,14.00
2018,08,04,00,09,13.90
2018,08,04,00,10,13.90
2018,08,04,00,11,13.90
2018,08,04,00,12,13.90
2018,08,04,00,13,13.90
2018,08,04,00,14,13.90
2018,08,04,00,15,13.90
2018,08,04,00,16,13.90
2018,08,04,00,17,13.90
2018,08,04,00,18,13.90
2018,08,04,00,19,13.90
2018,08,04,00,20,13.90
2018,08,04,00,21,13.80
2018,08,04,00,22,13.80
2018,08,04,00,23,13.80
2018,08,04,00,24,13.80
2018,08,04,00,25,13.80
2018,08,04,00,26,13.80
2018,08,04,00,27,13.80
2018,08,04,00,28,13.80
2018,08,04,00,29,13.80
2018,08,04,00,30,13.80
2018,08,04,00,31,13.80
2018,08,04,00,32,13.80
2018,08,04,00,33,13.80
2018,08,04,00,34,13.80
2018,08,04,00,35,13.80
2018,08,04,00,36,13.80
2018,08,04,00,37,13.80
2018,08,04,00,38,13.80
2018,08,04,00,39,13.80
2018,08,04,00,40,13.80
2018,08,04,00,41,13.80
2018,08,04,00,42,13.80
2018,08,04,00,43,13.80
2018,08,04,00,44,13.80
2018,08,04,00,45,13.80
2018,08,04,00,46,13.80
2018,08,04,00,47,13.80
2018,08,04,00,48,13.80
2018,08,04,00,49,13.80
2018,08,04,00,50,13.80
2018,08,04,00,51,13.70
2018,08,04,00,52,13.70
2018,08,04,00,53,13.70
2018,08,04,00,54,13.70
2018,08,04,00,55,13.70
2018,08,04,00,56,13.70
2018,08,04,00,57,13.70
2018,08,04,00,58,13.70
2018,08,04,00,59,13.70
2018,08,04,01,00,13.70
2018,08,04,01,01,13.70
2018,08,04,01,02,13.70
2018,08,04,01,03,13.70
2018,08,04,01,04,13.70
2018,08,04,01,05,13.70
2018,08,04,01,06,13.70
2018,08,04,01,07,13.70
2018,08,04,01,08,13.70
2018,08,04,01,09,13.70
2018,08,04,01,10,13.70
2018,08,04,01,11,13.70
2018,08,04,01,12,13.70
2018,08,04,01,13,13.70
2018,08,04,01,14,13.70
2018,08,04,01,15,13.70
2018,08,04,01,16,13.70
2018,08,04,01,17,13.70
2018,08,04,01,18,13.70
2018,08,04,01,19,13.70
2018,08,04,01,20,13.70
2018,08,04,01,21,13.70
2018,08,04,01,22,13.70
2018,08,04,01,23,13.70
2018,08,04,01,24,13.70
2018,08,04,01,25,13.70
2018,08,04,01,26,13.70
2018,08,04,01,27,13.70
2018,08,04,01,28,13.70
2018,08,04,01,29,13.60
2018,08,04,01,30,13.60
2018,08,04,01,31,13.60
2018,08,04,01,32,13.60
2018,08,04,01,33,13.70
2018,08,04,01,34,13.70
2018,08,04,01,35,13.70
2018,08,04,01,36,13.60
2018,08,04,01,37,13.70
2018,08,04,01,38,13.60
2018,08,04,01,39,13.60
2018,08,04,01,40,13.60
2018,08,04,01,41,13.60
2018,08,04,01,42,13.60
2018,08,04,01,43,13.60
2018,08,04,01,44,13.60
2018,08,04,01,45,13.60
2018,08,04,01,46,13.60
2018,08,04,01,47,13.60
2018,08,04,01,48,13.60
2018,08,04,01,49,13.60
2018,08,04,01,50,13.60
2018,08,04,01,51,13.60
2018,08,04,01,52,13.60
2018,08,04,01,53,13.60
2018,08,04,01,54,13.60
2018,08,04,01,55,13.60
2018,08,04,01,56,13.60
2018,08,04,01,57,13.60
2018,08,04,01,58,13.60
2018,08,04,01,59,13.60
2018,08,04,02,00,13.60
2018,08,04,02,01,13.50
2018,08,04,02,02,13.50
2018,08,04,02,03,13.50
2018,08,04,02,04,13.50
2018,08,04,02,05,13.50
2018,08,04,02,06,13.50
2018,08,04,02,07,13.50
2018,08,04,02,08,13.50
2018,08,04,02,09,13.50
2018,08,04,02,10,13.40
2018,08,04,02,11,13.40
2018,08,04,02,12,13.40
2018,08,04,02,13,13.40
2018,08,04,02,14,13.40
2018,08,04,02,15,13.30
2018,08,04,02,16,13.30
2018,08,04,02,17,13.30
2018,08,04,02,18,13.30
2018,08,04,02,19,13.30
2018,08,04,02,20,13.20
2018,08,04,02,21,13.20
2018,08,04,02,22,13.20
2018,08,04,02,23,13.20
2018,08,04,02,24,13.20
2018,08,04,02,25,13.20
2018,08,04,02,26,13.20
2018,08,04,02,27,13.10
2018,08,04,02,28,13.10
2018,08,04,02,29,13.10
2018,08,04,02,30,13.10
2018,08,04,02,31,13.10
2018,08,04,02,32,13.10
2018,08,04,02,33,13.10
2018,08,04,02,34,13.10
2018,08,04,02,35,13.10
2018,08,04,02,36,13.00
2018,08,04,02,37,13.00
2018,08,04,02,38,13.00
2018,08,04,02,39,13.00
2018,08,04,02,40,13.00
2018,08,04,02,41,13.00
2018,08,04,02,42,13.00
2018,08,04,02,43,13.00
2018,08,04,02,44,12.90
2018,08,04,02,45,12.90
2018,08,04,02,46,12.90
2018,08,04,02,47,12.90
2018,08,04,02,48,12.90
2018,08,04,02,49,12.90
2018,08,04,02,50,12.90
2018,08,04,02,51,12.90
2018,08,04,02,52,12.90
2018,08,04,02,53,12.90
2018,08,04,02,54,12.80
2018,08,04,02,55,12.80
2018,08,04,02,56,12.80
2018,08,04,02,57,12.80
2018,08,04,02,58,12.80
2018,08,04,02,59,12.80
2018,08,04,03,00,12.80
2018,08,04,03,01,12.80
2018,08,04,03,02,12.80
2018,08,04,03,03,12.80
2018,08,04,03,04,12.80
2018,08,04,03,05,12.80
2018,08,04,03,06,12.80
2018,08,04,03,07,12.80
2018,08,04,03,08,12.80
2018,08,04,03,09,12.80
2018,08,04,03,10,12.80
2018,08,04,03,11,12.80
2018,08,04,03,12,12.80
2018,08,04,03,13,12.80
2018,08,04,03,14,12.80
2018,08,04,03,15,12.80
2018,08,04,03,16,12.80
2018,08,04,03,17,12.70
2018,08,04,03,18,12.70
2018,08,04,03,19,12.70
2018,08,04,03,20,12.70
2018,08,04,03,21,12.70
2018,08,04,03,22,12.80
2018,08,04,03,23,12.80
2018,08,04,03,24,12.80
2018,08,04,03,25,12.80
2018,08,04,03,26,12.80
2018,08,04,03,27,12.80
2018,08,04,03,28,12.80
2018,08,04,03,29,12.80
2018,08,04,03,30,12.80
2018,08,04,03,31,12.80
2018,08,04,03,32,12.80
2018,08,04,03,33,12.80
2018,08,04,03,34,12.80
2018,08,04,03,35,12.80
2018,08,04,03,36,12.80
2018,08,04,03,37,12.80
2018,08,04,03,38,12.80
2018,08,04,03,39,12.80
2018,08,04,03,40,12.80
2018,08,04,03,41,12.80
2018,08,04,03,42,12.80
2018,08,04,03,43,12.80
2018,08,04,03,44,12.80
2018,08,04,03,45,12.70
2018,08,04,03,46,12.70
2018,08,04,03,47,12.70
2018,08,04,03,48,12.70
2018,08,04,03,49,12.70
2018,08,04,03,50,12.70
2018,08,04,03,51,12.70
2018,08,04,03,52,12.70
2018,08,04,03,53,12.70
2018,08,04,03,54,12.70
2018,08,04,03,55,12.70
2018,08,04,03,56,12.70
2018,08,04,03,57,12.70
2018,08,04,03,58,12.70
2018,08,04,03,59,12.70
2018,08,04,04,00,12.70
2018,08,04,04,01,12.70
2018,08,04,04,02,12.70
2018,08,04,05,04,12.30
2018,08,04,05,05,12.30
2018,08,04,05,06,12.30
2018,08,04,05,07,12.30
2018,08,04,05,08,12.30
2018,08,04,05,09,12.30
2018,08,04,05,10,12.20
2018,08,04,05,11,12.20
2018,08,04,05,12,12.20
2018,08,04,05,13,12.20
2018,08,04,05,14,12.20
2018,08,04,05,15,12.20
2018,08,04,05,16,12.20
2018,08,04,05,17,12.20
2018,08,04,05,18,12.20
2018,08,04,05,19,12.20
2018,08,04,05,20,12.20
2018,08,04,05,21,12.20
2018,08,04,05,22,12.20
2018,08,04,05,23,12.20
2018,08,04,05,24,12.20
2018,08,04,05,25,12.20
2018,08,04,05,26,12.20
2018,08,04,05,27,12.20
2018,08,04,05,28,12.20
2018,08,04,05,29,12.20
2018,08,04,05,30,12.20
2018,08,04,05,31,12.20
2018,08,04,05,32,12.20
2018,08,04,05,33,12.20
2018,08,04,05,34,12.20
2018,08,04,05,35,12.20
2018,08,04,05,36,12.20
2018,08,04,05,37,12.20
2018,08,04,05,38,12.20
2018,08,04,05,39,12.20
2018,08,04,05,40,12.10
2018,08,04,05,41,12.10
2018,08,04,05,42,12.10
2018,08,04,05,43,12.10
2018,08,04,05,44,12.10
2018,08,04,05,45,12.10
2018,08,04,05,46,12.10
2018,08,04,05,47,12.10
2018,08,04,05,48,12.10
2018,08,04,05,49,12.10
2018,08,04,05,50,12.10
2018,08,04,05,51,12.10
2018,08,04,05,52,12.10
2018,08,04,05,53,12.10
2018,08,04,05,54,12.10
2018,08,04,05,55,12.10
2018,08,04,05,56,12.10
2018,08,04,05,57,12.10
2018,08,04,05,58,12.10
2018,08,04,05,59,12.10
2018,08,04,06,00,12.10
2018,08,04,06,01,12.10
2018,08,04,06,02,12.10
2018,08,04,06,03,12.10
2018,08,04,06,04,12.10
2018,08,04,06,05,12.20
2018,08,04,06,06,12.20
2018,08,04,06,07,12.20
2018,08,04,06,08,12.20
2018,08,04,06,09,12.20
2018,08,04,06,10,12.20
2018,08,04,06,11,12.20
2018,08,04,06,12,12.20
2018,08,04,06,13,12.20
2018,08,04,06,14,12.20
2018,08,04,06,15,12.20
2018,08,04,06,16,12.20
2018,08,04,06,17,12.20
2018,08,04,06,18,12.20
2018,08,04,06,19,12.20
2018,08,04,06,20,12.20
2018,08,04,06,21,12.20
2018,08,04,06,22,12.20
2018,08,04,06,23,12.20
2018,08,04,06,24,12.20
2018,08,04,06,25,12.20
2018,08,04,06,26,12.20
2018,08,04,06,27,12.10
2018,08,04,06,28,12.10
2018,08,04,06,29,12.10
2018,08,04,06,30,12.10
2018,08,04,06,31,12.10
2018,08,04,06,32,12.10
2018,08,04,06,33,12.20
2018,08,04,06,34,12.20
2018,08,04,06,35,12.20
2018,08,04,06,36,12.20
2018,08,04,06,37,12.20
2018,08,04,06,38,12.20
2018,08,04,06,39,12.30
2018,08,04,06,40,12.30
2018,08,04,06,41,12.30
2018,08,04,06,42,12.30
2018,08,04,06,43,12.30
2018,08,04,06,44,12.40
2018,08,04,06,45,12.40
2018,08,04,06,46,12.40
2018,08,04,06,47,12.40
2018,08,04,06,48,12.40
2018,08,04,06,49,12.40
2018,08,04,06,50,12.40
2018,08,04,06,51,12.40
2018,08,04,06,52,12.40
2018,08,04,06,53,12.40
2018,08,04,06,54,12.40
2018,08,04,06,55,12.40
2018,08,04,06,56,12.40
2018,08,04,06,57,12.50
2018,08,04,06,58,12.50
2018,08,04,06,59,12.50
2018,08,04,07,00,12.50
2018,08,04,07,01,12.60
2018,08,04,07,02,12.60
2018,08,04,07,03,12.60
2018,08,04,07,04,12.70
2018,08,04,07,05,12.70
2018,08,04,07,06,12.70
2018,08,04,07,07,12.80
2018,08,04,07,08,12.80
2018,08,04,07,09,12.80
2018,08,04,07,10,12.90
2018,08,04,07,11,12.90
2018,08,04,07,12,13.00
2018,08,04,07,13,13.00
2018,08,04,07,14,13.10
2018,08,04,07,15,13.10
2018,08,04,07,16,13.20
2018,08,04,07,17,13.20
2018,08,04,07,18,13.20
2018,08,04,07,19,13.20
2018,08,04,07,20,13.20
2018,08,04,07,21,13.20
2018,08,04,07,22,13.20
2018,08,04,07,23,13.30
2018,08,04,07,24,13.30
2018,08,04,07,25,13.40
2018,08,04,07,26,13.40
2018,08,04,07,27,13.50
2018,08,04,07,28,13.60
2018,08,04,07,29,13.60
2018,08,04,07,30,13.70
2018,08,04,07,31,13.70
2018,08,04,07,32,13.80
2018,08,04,07,33,13.80
2018,08,04,07,34,13.80
2018,08,04,07,35,13.80
2018,08,04,07,36,13.80
2018,08,04,07,37,13.80
2018,08,04,07,38,13.90
2018,08,04,07,39,13.90
2018,08,04,07,40,13.90
2018,08,04,07,41,14.00
2018,08,04,07,42,14.10
2018,08,04,07,43,14.20
2018,08,04,07,44,14.30
2018,08,04,07,45,14.30
2018,08,04,07,46,14.30
2018,08,04,07,47,14.40
2018,08,04,07,48,14.40
2018,08,04,07,49,14.50
2018,08,04,07,50,14.50
2018,08,04,07,51,14.60
2018,08,04,07,52,14.60
2018,08,04,07,53,14.70
2018,08,04,07,54,14.80
2018,08,04,07,55,14.90
2018,08,04,07,56,15.00
2018,08,04,07,57,15.10
2018,08,04,07,58,15.10
2018,08,04,07,59,15.20
2018,08,04,08,00,15.30
2018,08,04,08,01,15.40
2018,08,04,08,02,15.50
2018,08,04,08,03,15.60
2018,08,04,08,04,15.70
2018,08,04,08,05,15.80
2018,08,04,08,06,15.80
2018,08,04,08,07,15.90
2018,08,04,08,08,16.00
2018,08,04,08,09,16.10
2018,08,04,08,10,16.20
2018,08,04,08,11,16.30
2018,08,04,08,12,16.30
2018,08,04,08,13,16.40
2018,08,04,08,14,16.40
2018,08,04,08,15,16.50
2018,08,04,08,16,16.50
2018,08,04,08,17,16.60
2018,08,04,08,18,16.70
2018,08,04,08,19,16.80
2018,08,04,08,20,16.80
2018,08,04,08,21,16.90
2018,08,04,08,22,17.00
2018,08,04,08,23,17.10
2018,08,04,08,24,17.10
2018,08,04,08,25,17.20
2018,08,04,08,26,17.20
2018,08,04,08,27,17.30
2018,08,04,08,28,17.30
2018,08,04,08,29,17.30
2018,08,04,08,30,17.40
2018,08,04,08,31,17.40
2018,08,04,08,32,17.40
2018,08,04,08,33,17.40
2018,08,04,08,34,17.50
2018,08,04,08,35,17.50
2018,08,04,08,36,17.60
2018,08,04,08,37,17.60
2018,08,04,08,38,17.70
2018,08,04,08,39,17.80
2018,08,04,08,40,17.90
2018,08,04,08,41,17.90
2018,08,04,08,42,17.90
2018,08,04,08,43,17.90
2018,08,04,08,44,17.90
2018,08,04,08,45,17.90
2018,08,04,08,46,17.90
2018,08,04,08,47,17.90
2018,08,04,08,48,17.80
2018,08,04,08,49,17.70
2018,08,04,08,50,17.60
2018,08,04,08,51,17.60
2018,08,04,08,52,17.60
2018,08,04,08,53,17.60
2018,08,04,08,54,17.60
2018,08,04,08,55,17.60
2018,08,04,08,56,17.50
2018,08,04,08,57,17.50
2018,08,04,08,58,17.50
2018,08,04,08,59,17.40
2018,08,04,09,00,17.40
2018,08,04,09,01,17.40
2018,08,04,09,02,17.40
2018,08,04,09,03,17.40
2018,08,04,09,04,17.40
2018,08,04,09,05,17.30
2018,08,04,09,06,17.30
2018,08,04,09,07,17.20
2018,08,04,09,08,17.10
2018,08,04,09,09,17.10
2018,08,04,09,10,17.10
2018,08,04,09,11,17.10
2018,08,04,09,12,17.20
2018,08,04,09,13,17.20
2018,08,04,09,14,17.20
2018,08,04,09,15,17.20
2018,08,04,09,16,17.20
2018,08,04,09,17,17.20
2018,08,04,09,18,17.30
2018,08,04,09,19,17.40
2018,08,04,09,20,17.40
2018,08,04,09,21,17.50
2018,08,04,09,22,17.60
2018,08,04,09,23,17.70
2018,08,04,09,24,17.70
2018,08,04,09,25,17.80
2018,08,04,09,26,17.80
2018,08,04,09,27,17.80
2018,08,04,09,28,17.90
2018,08,04,09,29,17.90
2018,08,04,09,30,17.90
2018,08,04,09,31,18.00
2018,08,04,09,32,18.00
2018,08,04,09,33,18.10
2018,08,04,09,34,18.30
2018,08,04,09,35,18.40
2018,08,04,09,36,18.40
2018,08,04,09,37,18.40
2018,08,04,09,38,18.30
2018,08,04,09,39,18.30
2018,08,04,09,40,18.40
2018,08,04,09,41,18.40
2018,08,04,09,42,18.40
2018,08,04,09,43,18.50
2018,08,04,09,44,18.50
2018,08,04,09,45,18.60
2018,08,04,09,46,18.60
2018,08,04,09,47,18.60
2018,08,04,09,48,18.60
2018,08,04,09,49,18.50
2018,08,04,09,50,18.50
2018,08,04,09,51,18.40
2018,08,04,09,52,18.40
2018,08,04,09,53,18.40
2018,08,04,09,54,18.30
2018,08,04,09,55,18.40
2018,08,04,09,56,18.40
2018,08,04,09,57,18.40
2018,08,04,09,58,18.40
2018,08,04,09,59,18.40
2018,08,04,10,00,18.40
2018,08,04,10,01,18.40
2018,08,04,10,02,18.40
2018,08,04,10,03,18.50
2018,08,04,10,04,18.60
2018,08,04,10,05,18.70
2018,08,04,10,06,18.80
2018,08,04,10,07,18.90
2018,08,04,10,08,19.00
2018,08,04,10,09,19.10
2018,08,04,10,10,19.10
2018,08,04,10,11,19.20
2018,08,04,10,12,19.30
2018,08,04,10,13,19.40
2018,08,04,10,14,19.50
2018,08,04,10,15,19.60
2018,08,04,10,16,19.70
2018,08,04,10,17,19.80
2018,08,04,10,18,19.90
2018,08,04,10,19,20.00
2018,08,04,10,20,20.00
2018,08,04,10,21,20.10
2018,08,04,10,22,20.10
2018,08,04,10,23,20.20
2018,08,04,10,24,20.20
2018,08,04,10,25,20.30
2018,08,04,10,26,20.20
2018,08,04,10,27,20.20
2018,08,04,10,28,20.20
2018,08,04,10,29,20.20
2018,08,04,10,30,20.20
2018,08,04,10,31,20.20
2018,08,04,10,32,20.20
2018,08,04,10,33,20.20
2018,08,04,10,34,20.20
2018,08,04,10,35,20.20
2018,08,04,10,36,20.20
2018,08,04,10,37,20.20
2018,08,04,10,38,20.20
2018,08,04,10,39,20.30
2018,08,04,10,40,20.30
2018,08,04,10,41,20.20
2018,08,04,10,42,20.20
2018,08,04,10,43,20.10
2018,08,04,10,44,20.00
2018,08,04,10,45,20.00
2018,08,04,10,46,19.90
2018,08,04,10,47,19.80
2018,08,04,10,48,19.70
2018,08,04,10,49,19.60
2018,08,04,10,50,19.60
2018,08,04,10,51,19.50
2018,08,04,10,52,19.50
2018,08,04,10,53,19.40
2018,08,04,10,54,19.40
2018,08,04,10,55,19.30
2018,08,04,10,56,19.30
2018,08,04,10,57,19.30
2018,08,04,10,58,19.30
2018,08,04,10,59,19.30
2018,08,04,11,00,19.40
2018,08,04,11,01,19.40
2018,08,04,11,02,19.50
2018,08,04,11,03,19.50
2018,08,04,11,04,19.60
2018,08,04,11,05,19.80
2018,08,04,11,06,19.90
2018,08,04,11,07,20.10
2018,08,04,11,08,20.30
2018,08,04,11,09,20.40
2018,08,04,11,10,20.60
2018,08,04,11,11,20.70
2018,08,04,11,12,20.80
2018,08,04,11,13,21.00
2018,08,04,11,14,21.10
2018,08,04,11,15,21.20
2018,08,04,11,16,21.30
2018,08,04,11,17,21.50
2018,08,04,11,18,21.60
2018,08,04,11,19,21.70
2018,08,04,11,20,21.80
2018,08,04,11,21,21.80
2018,08,04,11,22,21.80
2018,08,04,11,23,21.80
2018,08,04,11,24,21.90
2018,08,04,11,25,21.90
2018,08,04,11,26,21.90
2018,08,04,11,27,21.90
2018,08,04,11,28,21.80
2018,08,04,11,29,21.80
2018,08,04,11,30,21.70
2018,08,04,11,31,21.50
2018,08,04,11,32,21.40
2018,08,04,11,33,21.30
2018,08,04,11,34,21.40
2018,08,04,11,35,21.40
2018,08,04,11,36,21.50
2018,08,04,11,37,21.50
2018,08,04,11,38,21.60
2018,08,04,11,39,21.60
2018,08,04,11,40,21.60
2018,08,04,11,41,21.60
2018,08,04,11,42,21.70
2018,08,04,11,43,21.70
2018,08,04,11,44,21.80
2018,08,04,11,45,21.90
2018,08,04,11,46,21.90
2018,08,04,11,47,21.90
2018,08,04,11,48,21.90
2018,08,04,11,49,21.80
2018,08,04,11,50,21.70
2018,08,04,11,51,21.50
2018,08,04,11,52,21.40
2018,08,04,11,53,21.30
2018,08,04,11,54,21.20
2018,08,04,11,55,21.00
2018,08,04,11,56,20.90
2018,08,04,11,57,20.80
2018,08,04,11,58,20.70
2018,08,04,11,59,20.70
2018,08,04,12,00,20.60
2018,08,04,12,01,20.50
2018,08,04,12,02,20.30
2018,08,04,12,03,20.20
2018,08,04,12,04,20.20
2018,08,04,12,05,20.10
2018,08,04,12,06,20.10
2018,08,04,12,07,20.00
2018,08,04,12,08,19.90
2018,08,04,12,09,19.90
2018,08,04,12,10,19.80
2018,08,04,12,11,19.80
2018,08,04,12,12,19.90
2018,08,04,12,13,19.90
2018,08,04,12,14,19.90
2018,08,04,12,15,19.90
2018,08,04,12,16,19.90
2018,08,04,12,17,19.90
2018,08,04,12,18,19.90
2018,08,04,12,19,19.90
2018,08,04,12,20,20.00
2018,08,04,12,21,20.00
2018,08,04,12,22,19.90
2018,08,04,12,23,20.00
2018,08,04,12,24,20.00
2018,08,04,12,25,20.00
2018,08,04,12,26,20.00
2018,08,04,12,27,20.00
2018,08,04,12,28,20.00
2018,08,04,12,29,20.10
2018,08,04,12,30,20.10
2018,08,04,12,31,20.10
2018,08,04,12,32,20.20
2018,08,04,12,33,20.20
2018,08,04,12,34,20.20
2018,08,04,12,35,20.30
2018,08,04,12,36,20.30
2018,08,04,12,37,20.40
2018,08,04,12,38,20.40
2018,08,04,12,39,20.50
2018,08,04,12,40,20.60
2018,08,04,12,41,20.70
2018,08,04,12,42,20.80
2018,08,04,12,43,21.00
2018,08,04,12,44,21.20
2018,08,04,12,45,21.40
2018,08,04,12,46,21.60
2018,08,04,12,47,21.70
2018,08,04,12,48,21.80
2018,08,04,12,49,21.90
2018,08,04,12,50,22.00
2018,08,04,12,51,22.10
2018,08,04,12,52,22.20
2018,08,04,12,53,22.30
2018,08,04,12,54,22.40
2018,08,04,12,55,22.50
2018,08,04,12,56,22.60
2018,08,04,12,57,22.70
2018,08,04,12,58,22.80
2018,08,04,12,59,22.80
2018,08,04,13,00,22.80
2018,08,04,13,01,22.80
2018,08,04,13,02,22.80
2018,08,04,13,03,22.80
2018,08,04,13,04,22.80
2018,08,04,13,05,22.90
2018,08,04,13,06,22.90
2018,08,04,13,07,22.80
2018,08,04,13,08,22.80
2018,08,04,13,09,22.70
2018,08,04,13,10,22.60
2018,08,04,13,11,22.50
2018,08,04,13,12,22.50
2018,08,04,13,13,22.50
2018,08,04,13,14,22.50
2018,08,04,13,15,22.40
2018,08,04,13,16,22.30
2018,08,04,13,17,22.20
2018,08,04,13,18,22.10
2018,08,04,13,19,22.10
2018,08,04,13,20,22.10
2018,08,04,13,21,22.10
2018,08,04,13,22,22.10
2018,08,04,13,23,22.10
2018,08,04,13,24,22.00
2018,08,04,13,25,21.90
2018,08,04,13,26,21.80
2018,08,04,13,27,21.70
2018,08,04,13,28,21.70
2018,08,04,13,29,21.70
2018,08,04,13,30,21.70
2018,08,04,13,31,21.80
2018,08,04,13,32,21.80
2018,08,04,13,33,21.90
2018,08,04,13,34,21.90
2018,08,04,13,35,22.00
2018,08,04,13,36,22.10
2018,08,04,13,37,22.20
2018,08,04,13,38,22.30
2018,08,04,13,39,22.40
2018,08,04,13,40,22.40
2018,08,04,13,41,22.50
2018,08,04,13,42,22.50
2018,08,04,13,43,22.60
2018,08,04,13,44,22.60
2018,08,04,13,45,22.70
2018,08,04,13,46,22.70
2018,08,04,13,47,22.80
2018,08,04,13,48,22.80
2018,08,04,13,49,22.80
2018,08,04,13,50,22.80
2018,08,04,13,51,22.80
2018,08,04,13,52,22.80
2018,08,04,13,53,22.90
2018,08,04,13,54,22.90
2018,08,04,13,55,22.90
2018,08,04,13,56,22.80
2018,08,04,13,57,22.80
2018,08,04,13,58,22.90
2018,08,04,13,59,22.90
2018,08,04,14,00,22.90
2018,08,04,14,01,23.00
2018,08,04,14,02,23.00
2018,08,04,14,03,23.10
2018,08,04,14,04,23.10
2018,08,04,14,05,23.20
2018,08,04,14,06,23.20
2018,08,04,14,07,23.10
2018,08,04,14,08,23.10
2018,08,04,14,09,23.00
2018,08,04,14,10,22.90
2018,08,04,14,11,22.90
2018,08,04,14,12,23.00
2018,08,04,14,13,23.00
2018,08,04,14,14,23.10
2018,08,04,14,15,23.10
2018,08,04,14,16,23.20
2018,08,04,14,17,23.20
2018,08,04,14,18,23.20
2018,08,04,14,19,23.20
2018,08,04,14,20,23.30
2018,08,04,14,21,23.30
2018,08,04,14,22,23.40
2018,08,04,14,23,23.50
2018,08,04,14,24,23.50
2018,08,04,14,25,23.60
2018,08,04,14,26,23.70
2018,08,04,14,27,23.70
2018,08,04,14,28,23.80
2018,08,04,14,29,23.80
2018,08,04,14,30,23.90
2018,08,04,14,31,23.90
2018,08,04,14,32,23.90
2018,08,04,14,33,24.00
2018,08,04,14,34,24.00
2018,08,04,14,35,24.10
2018,08,04,14,36,24.10
2018,08,04,14,37,24.10
2018,08,04,14,38,24.10
2018,08,04,14,39,24.10
2018,08,04,14,40,24.10
2018,08,04,14,41,24.20
2018,08,04,14,42,24.20
2018,08,04,14,43,24.30
2018,08,04,14,44,24.30
2018,08,04,14,45,24.40
2018,08,04,14,46,24.40
2018,08,04,14,47,24.40
2018,08,04,14,48,24.40
2018,08,04,14,49,24.30
2018,08,04,14,50,24.20
2018,08,04,14,51,24.20
2018,08,04,14,52,24.20
2018,08,04,14,53,24.20
2018,08,04,14,54,24.30
2018,08,04,14,55,24.30
2018,08,04,14,56,24.30
2018,08,04,14,57,24.40
2018,08,04,14,58,24.40
2018,08,04,14,59,24.40
2018,08,04,15,00,24.30
2018,08,04,15,01,24.30
2018,08,04,15,02,24.30
2018,08,04,15,03,24.30
2018,08,04,15,04,24.20
2018,08,04,15,05,24.20
2018,08,04,15,06,24.20
2018,08,04,15,07,24.20
2018,08,04,15,08,24.20
2018,08,04,15,09,24.30
2018,08,04,15,10,24.30
2018,08,04,15,11,24.30
2018,08,04,15,12,24.30
2018,08,04,15,13,24.30
2018,08,04,15,14,24.30
2018,08,04,15,15,24.40
2018,08,04,15,16,24.50
2018,08,04,15,17,24.50
2018,08,04,15,18,24.60
2018,08,04,15,19,24.60
2018,08,04,15,20,24.60
2018,08,04,15,21,24.60
2018,08,04,15,22,24.60
2018,08,04,15,23,24.60
2018,08,04,15,24,24.60
2018,08,04,15,25,24.60
2018,08,04,15,26,24.60
2018,08,04,15,27,24.60
2018,08,04,15,28,24.70
2018,08,04,15,29,24.60
2018,08,04,15,30,24.60
2018,08,04,15,31,24.60
2018,08,04,15,32,24.70
2018,08,04,15,33,24.70
2018,08,04,15,34,24.70
2018,08,04,15,35,24.70
2018,08,04,15,36,24.70
2018,08,04,15,37,24.70
2018,08,04,15,38,24.80
2018,08,04,15,39,24.80
2018,08,04,15,40,24.80
2018,08,04,15,41,24.80
2018,08,04,15,42,24.80
2018,08,04,15,43,24.80
2018,08,04,15,44,24.70
2018,08,04,15,45,24.70
2018,08,04,15,46,24.70
2018,08,04,15,47,24.80
2018,08,04,15,48,24.80
2018,08,04,15,49,24.80
2018,08,04,15,50,24.80
2018,08,04,15,51,24.80
2018,08,04,15,52,24.90
2018,08,04,15,53,24.90
2018,08,04,15,54,24.90
2018,08,04,15,55,25.00
2018,08,04,15,56,25.10
2018,08,04,15,57,25.10
2018,08,04,15,58,25.10
2018,08,04,15,59,25.10
2018,08,04,16,00,25.10
2018,08,04,16,01,25.10
2018,08,04,16,02,25.00
2018,08,04,16,03,25.00
2018,08,04,16,04,24.90
2018,08,04,16,05,24.90
2018,08,04,16,06,24.90
2018,08,04,16,07,24.90
2018,08,04,16,08,25.00
2018,08,04,16,09,25.00
2018,08,04,16,10,25.10
2018,08,04,16,11,25.10
2018,08,04,16,12,25.10
2018,08,04,16,13,25.20
2018,08,04,16,14,25.20
2018,08,04,16,15,25.20
2018,08,04,16,16,25.20
2018,08,04,16,17,25.10
2018,08,04,16,18,25.10
2018,08,04,16,19,25.10
2018,08,04,16,20,25.10
2018,08,04,16,21,25.10
2018,08,04,16,22,25.10
2018,08,04,16,23,25.10
2018,08,04,16,24,25.10
2018,08,04,16,25,25.10
2018,08,04,16,26,25.10
2018,08,04,16,27,25.20
2018,08,04,16,28,25.20
2018,08,04,16,29,25.20
2018,08,04,16,30,25.20
2018,08,04,16,31,25.20
2018,08,04,16,32,25.20
2018,08,04,16,33,25.30
2018,08,04,16,34,25.30
2018,08,04,16,35,25.20
2018,08,04,16,36,25.20
2018,08,04,16,37,25.30
2018,08,04,16,38,25.30
2018,08,04,16,39,25.30
2018,08,04,16,40,25.30
2018,08,04,16,41,25.30
2018,08,04,16,42,25.30
2018,08,04,16,43,25.20
2018,08,04,16,44,25.20
2018,08,04,16,45,25.20
2018,08,04,16,46,25.20
2018,08,04,16,47,25.10
2018,08,04,16,48,25.10
2018,08,04,16,49,25.00
2018,08,04,16,50,25.00
2018,08,04,16,51,25.00
2018,08,04,16,52,25.00
2018,08,04,16,53,24.90
2018,08,04,16,54,24.90
2018,08,04,16,55,24.90
2018,08,04,16,56,24.90
2018,08,04,16,57,24.90
2018,08,04,16,58,24.90
2018,08,04,16,59,24.90
2018,08,04,17,00,24.90
2018,08,04,17,01,24.90
2018,08,04,17,02,24.90
2018,08,04,17,03,24.90
2018,08,04,17,04,24.90
2018,08,04,17,05,24.90
2018,08,04,17,06,24.90
2018,08,04,17,07,25.00
2018,08,04,17,08,25.00
2018,08,04,17,09,25.00
2018,08,04,17,10,25.00
2018,08,04,17,11,25.00
2018,08,04,17,12,25.00
2018,08,04,17,13,25.00
2018,08,04,17,14,25.00
2018,08,04,17,15,25.00
2018,08,04,17,16,25.00
2018,08,04,17,17,25.00
2018,08,04,17,18,25.00
2018,08,04,17,19,25.10
2018,08,04,17,20,25.00
2018,08,04,17,21,25.00
2018,08,04,17,22,24.90
2018,08,04,17,23,24.90
2018,08,04,17,24,24.80
2018,08,04,17,25,24.80
2018,08,04,17,26,24.80
2018,08,04,17,27,24.80
2018,08,04,17,28,24.80
2018,08,04,17,29,24.80
2018,08,04,17,30,24.80
2018,08,04,17,31,24.90
2018,08,04,17,32,24.90
2018,08,04,17,33,24.90
2018,08,04,17,34,24.90
2018,08,04,17,35,25.00
2018,08,04,17,36,24.90
2018,08,04,17,37,24.90
2018,08,04,17,38,24.90
2018,08,04,17,39,25.00
2018,08,04,17,40,25.00
2018,08,04,17,41,25.00
2018,08,04,17,42,24.90
2018,08,04,17,43,24.90
2018,08,04,17,44,24.80
2018,08,04,17,45,24.70
2018,08,04,17,46,24.70
2018,08,04,17,47,24.70
2018,08,04,17,48,24.70
2018,08,04,17,49,24.70
2018,08,04,17,50,24.60
2018,08,04,17,51,24.60
2018,08,04,17,52,24.50
2018,08,04,17,53,24.50
2018,08,04,17,54,24.40
2018,08,04,17,55,24.40
2018,08,04,17,56,24.30
2018,08,04,17,57,24.30
2018,08,04,17,58,24.20
2018,08,04,17,59,24.10
2018,08,04,18,00,24.10
2018,08,04,18,01,24.00
2018,08,04,18,02,23.90
2018,08,04,18,03,23.90
2018,08,04,18,04,23.80
2018,08,04,18,05,23.80
2018,08,04,18,06,23.80
2018,08,04,18,07,23.80
2018,08,04,18,08,23.80
2018,08,04,18,09,23.80
2018,08,04,18,10,23.70
2018,08,04,18,11,23.70
2018,08,04,18,12,23.70
2018,08,04,18,13,23.70
2018,08,04,18,14,23.80
2018,08,04,18,15,23.80
2018,08,04,18,16,23.80
2018,08,04,18,17,23.80
2018,08,04,18,18,23.80
2018,08,04,18,19,23.80
2018,08,04,18,20,23.80